Regional Weather Roundup
Issued by NWS

Home | Current Version | Previous Version | Text Only | Print | Product List | Glossary Off
Versions: 1 2 3 4 5 6 7 8 9 10 11 12 13 14 15 16 17 18 19 20 21 22 23 24 25 26 27 28 29 30 31 32 33 34 35 36 37 38 39 40 41 42 43 44 45 46 47 48 49 50

000
ASUS43 KMPX 290301
RWRMN
WEATHER ROUNDUP FOR MINNESOTA
NATIONAL WEATHER SERVICE TWIN CITIES/CHANHASSEN MN
1000 PM CDT THU AUG 28 2014


NOTE: "FAIR" INDICATES FEW OR NO CLOUDS BELOW 12,000 FEET WITH NO
SIGNIFICANT WEATHER AND/OR OBSTRUCTIONS TO VISIBILITY. N/A MEANS
CURRENT SKY AND/OR WEATHER CONDITIONS ARE NOT AVAILABLE.

MNZ060>063-068>070-290400-
   Twin Cities Metro

CITY           SKY/WX    TMP DP  RH WIND       PRES   REMARKS
TWIN CITIES    CLOUDY    68  65  90 E13       29.92F
ST PAUL        CLOUDY    67  64  90 SE9       29.93F
CRYSTAL        CLOUDY    69  63  81 E10       29.91F
BLAINE         CLOUDY    70  66  88 SE10      29.92F
LAKEVILLE      CLOUDY    64  63  94 E7        29.92F
EDEN PRAIRIE   CLOUDY    68  64  87 SE13G20   29.91S
SOUTH ST PAUL  CLOUDY    67  64  89 SE5       29.93S
LAKE ELMO      CLOUDY    66  63  88 SE7       29.94F
$$
MNZ001>005-007-008-013>017-022>024-027-028-290400-
   Northwest Minnesota

CITY           SKY/WX    TMP DP  RH WIND       PRES   REMARKS
BEMIDJI        CLOUDY    64  61  88 S8        29.92F
HALLOCK        MOCLDY    70  64  83 S16       29.83S
ROSEAU         MOCLDY    70  63  78 S12       29.87S
WARROAD        CLOUDY    66  64  94 S6        29.88S
THIEF RVR FALL CLOUDY    66  61  82 S6        29.89S
CROOKSTON      CLOUDY    68  63  83 S9        29.88S
FOSSTON        CLOUDY    64  57  77 SE7       29.90F
DETROIT LAKES  CLOUDY    64  63  94 SE8       29.92S
MOORHEAD       DRIZZLE   66  66 100 SE6       29.88F
PARK RAPIDS    LGT RAIN  65  63  93 SE10      29.92F
MAHNOMEN       CLOUDY    65  60  85 SE7       29.90S
$$
MNZ006-009>011-018-025>026-290400-
   North Central Minnesota

CITY           SKY/WX    TMP DP  RH WIND       PRES   REMARKS
BAUDETTE       CLOUDY    66  61  84 S5        29.89F
FLAG ISLAND    CLOUDY    68  64  88 S13       29.86S
INTL FALLS     CLOUDY    65  60  84 SE3       29.92F
WASKISH        CLOUDY    66  61  82 S5        29.90F
BIG FORK       CLOUDY    64  59  82 S6        29.94S
LONGVILLE      DRIZZLE   63  63 100 CALM      29.94S
GRAND RAPIDS   CLOUDY    63  57  82 SE7       29.95F
CRANE LAKE     CLOUDY    64  57  77 S3        29.96S
ORR            CLOUDY    64  55  72 S6        29.92F
COOK           CLOUDY    64  57  77 SE3       29.96F
WALKER         RAIN      64  62  93 SE5       29.93S
$$
MNZ012-019>021-037-290400-
   Northeast Minnesota

CITY           SKY/WX    TMP DP  RH WIND       PRES   REMARKS
DULUTH         CLOUDY    60  55  83 E7        29.98F
ELY            CLOUDY    61  52  72 SE6       29.99S
HIBBING        CLOUDY    62  56  80 SE7       29.97F
EVELETH        CLOUDY    63  54  72 SE3       29.99F
DULUTH HARBOR  CLOUDY    64  61  88 NE9       29.98F
TWO HARBORS    CLOUDY    57  52  82 NE3       29.98F
SILVER BAY     CLOUDY    57  54  88 CALM      29.99F
GRAND MARAIS     N/A     60  52  74 N5        30.00F
G MARAIS ARPRT MOCLDY    54  46  76 E3        30.03F
$$
MNZ029>031-032-039>041-046>048-054>057-064-290400-
   West Central Minnesota

CITY           SKY/WX    TMP DP  RH WIND       PRES   REMARKS
FERGUS FALLS   CLOUDY    66  63  88 SE7       29.88F
WHEATON        CLOUDY    63  63 100 E6        29.89S
MORRIS         RAIN      66  64  94 SE6       29.87S VSB 1
ALEXANDRIA     CLOUDY    65  63  93 E13       29.91F
ELBOW LAKE     CLOUDY    64  64  99 SE3       29.89S
WADENA         RAIN      63  63 100 SE6       29.91F
GLENWOOD       CLOUDY    64  64 100 E9        29.91S FOG
APPLETON       CLOUDY    68  64  88 SE7       29.87R FOG
BENSON         CLOUDY    66  64  94 SE8       29.88S FOG
ORTONVILLE     CLOUDY    64  63  94 E6        29.87S FOG
MADISON        CLOUDY    70  68  94 E7        29.86F FOG
WILLMAR        CLOUDY    66  64  94 SE13      29.90S
$$
MNZ033>034-036-042>043-049>051-058-059-290400-
   Central Minnesota

CITY           SKY/WX    TMP DP  RH WIND       PRES   REMARKS
ST CLOUD       CLOUDY    68  64  87 E7        29.91F
SAUK CENTRE    CLOUDY    64  64  97 E10       29.90F FOG
PAYNESVILLE    HVY RAIN  63  63  99 E10       29.91S
AITKIN         MIX PCPN  66  61  82 SE5       29.94F
PINE RIVER     CLOUDY    64  64 100 SE7       29.97F
BRAINERD       CLOUDY    64  62  93 CALM      29.94F
STAPLES        DRIZZLE   63  63 100 CALM      29.92F
LONG PRAIRIE   DRIZZLE   63  63 100 E6        29.92F
LITTLE FALLS   CLOUDY    63  61  94 E7        29.92F
LITCHFIELD     CLOUDY    66  66 100 SE10      29.92R
BUFFALO        CLOUDY    67  62  84 E8        29.93S
MAPLE LAKE     CLOUDY    68  65  89 E6        29.93S
$$
MNZ037-044-045-052-053-290400-
   East Central Minnesota

CITY           SKY/WX    TMP DP  RH WIND       PRES   REMARKS
PRINCETON      CLOUDY    66  64  94 E8        29.93F
MORA           CLOUDY    63  61  94 E6        29.96F
CAMBRIDGE      CLOUDY    68  59  73 E7        29.92F
RUSH CITY      CLOUDY    64  61  90 CALM      29.95F
MOOSE LAKE     CLOUDY    63  57  82 CALM      29.96S
HINCKLEY       CLOUDY    64  63  94 E5        29.96F
CLOQUET        CLOUDY    61  55  82 CALM      29.98F
MCGREGOR       CLOUDY    63  61  94 E3        29.96F
$$
MNZ071>073-080-081-089-090-097-098-290400-
   Southwest Minnesota

CITY           SKY/WX    TMP DP  RH WIND       PRES   REMARKS
MONTEVIDEO     CLOUDY    66  66 100 S9        29.88S FOG
GRANITE FALLS  CLOUDY    66  66  99 E9        29.89S
CANBY          CLOUDY    67  66  97 E6        29.87S FOG
MARSHALL       CLOUDY    68  64  88 SE10      29.85F
REDWOOD FALLS  CLOUDY    67  66  97 E6        29.88S
OLIVIA         LGT RAIN  68  64  88 SE10      29.89S
PIPESTONE      LGT RAIN  68  66  94 SE6       29.87R
WINDOM         CLOUDY    66  64  94 E7        29.89S
WORTHINGTON    CLOUDY    68  66  94 SE8       29.89S VSB 1
JACKSON        FOG       66  64  94 E5        29.89S VSB 3/4
TRACY          CLOUDY    68  67  96 SE6       29.88R
SLAYTON        RAIN      66  66 100 CALM      29.89S
$$
MNZ065>067-074>077-082>085-091>093-290400-
   South Central Minnesota

CITY           SKY/WX    TMP DP  RH WIND       PRES   REMARKS
MANKATO        CLOUDY    66  61  82 E9        29.90S
NEW ULM        CLOUDY    66  66 100 E8        29.89S
ST JAMES       RAIN      66  64  94 E7        29.89S
FAIRMONT       CLOUDY    64  63  94 E5        29.89S
GLENCOE        CLOUDY    67  62  84 E9        29.90S
FARIBAULT      CLOUDY    68  63  83 E7        29.93R
OWATONNA       CLOUDY    66  63  88 E10       29.93R
WASECA         CLOUDY    63  59  88 E10       29.93S
ALBERT LEA     CLOUDY    66  66 100 E5        29.92S FOG
$$
MNZ078>079-086>088-094>096-290400-
   Southeast Minnesota

CITY           SKY/WX    TMP DP  RH WIND       PRES   REMARKS
ROCHESTER      CLOUDY    66  64  93 SE7       29.96R FOG
RED WING       DRIZZLE   66  64  94 SE13G18   29.93S
STANTON        CLOUDY    67  64  89 SE9G18    29.92S
DODGE CENTER   DRIZZLE   64  64 100 E9        29.95R
WINONA         DRIZZLE   66  64  94 E8        29.96S
AUSTIN         CLOUDY    68  66  94 SE6       29.93S FOG
PRESTON        CLOUDY    65  65 100 CALM      29.97R
$$
ABBREVIATIONS USED IN REMARKS
   TC - TEMPERATURES IN CELSIUS
  WCI - WIND CHILL INDEX
   HX - HEAT INDEX
  VSB - VISIBILITY
$$


USA.gov is the U.S. government's official web portal to all federal, state and local government web resources and services.